Date_Time,Julian_Date,Latitude,Longitude,Instrument_Depth,U,V,Speed,Direction
(yyyy-mm-dd hh:mn:ss UTC),(JD),(+ deg. North),(+ deg. East),(m),(cm/s),(cm/s),(cm/s),(deg True)
1981-10-20 22:00:00 UTC,2444898.416667,28.7317,-95.2428,0109,-0.52,-5.98,6.0000,185.0000
1981-10-20 22:30:00 UTC,2444898.437500,28.7317,-95.2428,0109,0.26,-4.99,5.0000,177.0000
1981-10-20 23:00:00 UTC,2444898.458333,28.7317,-95.2428,0109,0.52,-2.95,3.0000,170.0000
1981-10-20 23:30:00 UTC,2444898.479167,28.7317,-95.2428,0109,0.38,-1.96,2.0000,169.0000
1981-10-21 00:00:00 UTC,2444898.500000,28.7317,-95.2428,0109,0.12,-0.99,1.0000,173.0000
1981-10-21 00:30:00 UTC,2444898.520833,28.7317,-95.2428,0109,0.73,-0.68,1.0000,133.0000
1981-10-21 01:00:00 UTC,2444898.541667,28.7317,-95.2428,0109,2.95,0.52,3.0000,80.0000
1981-10-21 01:30:00 UTC,2444898.562500,28.7317,-95.2428,0109,3.46,2.00,4.0000,60.0000
1981-10-21 02:00:00 UTC,2444898.583333,28.7317,-95.2428,0109,4.29,2.58,5.0000,59.0000
1981-10-21 02:30:00 UTC,2444898.604167,28.7317,-95.2428,0109,5.71,1.85,6.0000,72.0000
1981-10-21 03:00:00 UTC,2444898.625000,28.7317,-95.2428,0109,6.96,0.73,7.0000,84.0000
1981-10-21 03:30:00 UTC,2444898.645833,28.7317,-95.2428,0109,8.99,0.47,9.0000,87.0000
1981-10-21 04:00:00 UTC,2444898.666667,28.7317,-95.2428,0109,9.00,-0.16,9.0000,91.0000
1981-10-21 04:30:00 UTC,2444898.687500,28.7317,-95.2428,0109,7.88,-1.39,8.0000,100.0000
1981-10-21 05:00:00 UTC,2444898.708333,28.7317,-95.2428,0109,8.46,-3.08,9.0000,110.0000
1981-10-21 05:30:00 UTC,2444898.729167,28.7317,-95.2428,0109,7.95,-4.23,9.0000,118.0000
1981-10-21 06:00:00 UTC,2444898.750000,28.7317,-95.2428,0109,8.55,-6.92,11.0000,129.0000
1981-10-21 06:30:00 UTC,2444898.770833,28.7317,-95.2428,0109,8.43,-11.18,14.0000,143.0000
1981-10-21 07:00:00 UTC,2444898.791667,28.7317,-95.2428,0109,8.50,-14.72,17.0000,150.0000
1981-10-21 07:30:00 UTC,2444898.812500,28.7317,-95.2428,0109,7.18,-15.41,17.0000,155.0000
1981-10-21 08:00:00 UTC,2444898.833333,28.7317,-95.2428,0109,5.25,-16.17,17.0000,162.0000
1981-10-21 08:30:00 UTC,2444898.854167,28.7317,-95.2428,0109,3.87,-15.52,16.0000,166.0000
1981-10-21 09:00:00 UTC,2444898.875000,28.7317,-95.2428,0109,3.53,-16.63,17.0000,168.0000
1981-10-21 09:30:00 UTC,2444898.895833,28.7317,-95.2428,0109,3.53,-16.63,17.0000,168.0000
1981-10-21 10:00:00 UTC,2444898.916667,28.7317,-95.2428,0109,4.41,-15.38,16.0000,164.0000
1981-10-21 10:30:00 UTC,2444898.937500,28.7317,-95.2428,0109,4.88,-14.18,15.0000,161.0000
1981-10-21 11:00:00 UTC,2444898.958333,28.7317,-95.2428,0109,3.86,-13.46,14.0000,164.0000
1981-10-21 11:30:00 UTC,2444898.979167,28.7317,-95.2428,0109,3.58,-12.50,13.0000,164.0000
1981-10-21 12:00:00 UTC,2444899.000000,28.7317,-95.2428,0109,3.76,-10.34,11.0000,160.0000
1981-10-21 12:30:00 UTC,2444899.020833,28.7317,-95.2428,0109,3.26,-9.46,10.0000,161.0000
1981-10-21 13:00:00 UTC,2444899.041667,28.7317,-95.2428,0109,3.42,-9.40,10.0000,160.0000
1981-10-21 13:30:00 UTC,2444899.062500,28.7317,-95.2428,0109,4.54,-8.91,10.0000,153.0000
1981-10-21 14:00:00 UTC,2444899.083333,28.7317,-95.2428,0109,5.03,-7.46,9.0000,146.0000
1981-10-21 14:30:00 UTC,2444899.104167,28.7317,-95.2428,0109,6.16,-7.88,10.0000,142.0000
1981-10-21 15:00:00 UTC,2444899.125000,28.7317,-95.2428,0109,6.02,-7.99,10.0000,143.0000
1981-10-21 15:30:00 UTC,2444899.145833,28.7317,-95.2428,0109,5.59,-8.29,10.0000,146.0000
1981-10-21 16:00:00 UTC,2444899.166667,28.7317,-95.2428,0109,5.83,-9.33,11.0000,148.0000
1981-10-21 16:30:00 UTC,2444899.187500,28.7317,-95.2428,0109,5.33,-9.62,11.0000,151.0000
1981-10-21 17:00:00 UTC,2444899.208333,28.7317,-95.2428,0109,4.88,-10.96,12.0000,156.0000
1981-10-21 17:30:00 UTC,2444899.229167,28.7317,-95.2428,0109,3.76,-10.34,11.0000,160.0000
1981-10-21 18:00:00 UTC,2444899.250000,28.7317,-95.2428,0109,3.71,-11.41,12.0000,162.0000
1981-10-21 18:30:00 UTC,2444899.270833,28.7317,-95.2428,0109,4.45,-12.22,13.0000,160.0000
1981-10-21 19:00:00 UTC,2444899.291667,28.7317,-95.2428,0109,4.09,-13.39,14.0000,163.0000
1981-10-21 19:30:00 UTC,2444899.312500,28.7317,-95.2428,0109,1.31,-14.94,15.0000,175.0000
1981-10-21 20:00:00 UTC,2444899.333333,28.7317,-95.2428,0109,-0.84,-15.98,16.0000,183.0000
1981-10-21 20:30:00 UTC,2444899.354167,28.7317,-95.2428,0109,-1.12,-15.96,16.0000,184.0000
1981-10-21 21:00:00 UTC,2444899.375000,28.7317,-95.2428,0109,-0.26,-15.00,15.0000,181.0000
1981-10-21 21:30:00 UTC,2444899.395833,28.7317,-95.2428,0109,0.00,-15.00,15.0000,180.0000
1981-10-21 22:00:00 UTC,2444899.416667,28.7317,-95.2428,0109,0.52,-14.99,15.0000,178.0000
1981-10-21 22:30:00 UTC,2444899.437500,28.7317,-95.2428,0109,1.22,-13.95,14.0000,175.0000
1981-10-21 23:00:00 UTC,2444899.458333,28.7317,-95.2428,0109,1.22,-13.95,14.0000,175.0000
1981-10-21 23:30:00 UTC,2444899.479167,28.7317,-95.2428,0109,0.68,-12.98,13.0000,177.0000
1981-10-22 00:00:00 UTC,2444899.500000,28.7317,-95.2428,0109,1.25,-11.93,12.0000,174.0000
1981-10-22 00:30:00 UTC,2444899.520833,28.7317,-95.2428,0109,2.29,-10.76,11.0000,168.0000
1981-10-22 01:00:00 UTC,2444899.541667,28.7317,-95.2428,0109,3.91,-9.21,10.0000,157.0000
1981-10-22 01:30:00 UTC,2444899.562500,28.7317,-95.2428,0109,5.30,-8.48,10.0000,148.0000
1981-10-22 02:00:00 UTC,2444899.583333,28.7317,-95.2428,0109,5.99,-9.23,11.0000,147.0000
1981-10-22 02:30:00 UTC,2444899.604167,28.7317,-95.2428,0109,6.18,-10.29,12.0000,149.0000
1981-10-22 03:00:00 UTC,2444899.625000,28.7317,-95.2428,0109,6.00,-10.39,12.0000,150.0000
1981-10-22 03:30:00 UTC,2444899.645833,28.7317,-95.2428,0109,5.45,-10.69,12.0000,153.0000
1981-10-22 04:00:00 UTC,2444899.666667,28.7317,-95.2428,0109,4.30,-11.20,12.0000,159.0000
1981-10-22 04:30:00 UTC,2444899.687500,28.7317,-95.2428,0109,2.49,-11.74,12.0000,168.0000
1981-10-22 05:00:00 UTC,2444899.708333,28.7317,-95.2428,0109,-0.21,-12.00,12.0000,181.0000
1981-10-22 05:30:00 UTC,2444899.729167,28.7317,-95.2428,0109,-2.85,-10.63,11.0000,195.0000
1981-10-22 06:00:00 UTC,2444899.750000,28.7317,-95.2428,0109,-5.33,-9.62,11.0000,209.0000
1981-10-22 06:30:00 UTC,2444899.770833,28.7317,-95.2428,0109,-7.22,-9.58,12.0000,217.0000
1981-10-22 07:00:00 UTC,2444899.791667,28.7317,-95.2428,0109,-7.87,-9.06,12.0000,221.0000
1981-10-22 07:30:00 UTC,2444899.812500,28.7317,-95.2428,0109,-9.19,-9.19,13.0000,225.0000
1981-10-22 08:00:00 UTC,2444899.833333,28.7317,-95.2428,0109,-9.35,-9.03,13.0000,226.0000
1981-10-22 08:30:00 UTC,2444899.854167,28.7317,-95.2428,0109,-8.87,-9.51,13.0000,223.0000
1981-10-22 09:00:00 UTC,2444899.875000,28.7317,-95.2428,0109,-8.03,-8.92,12.0000,222.0000
1981-10-22 09:30:00 UTC,2444899.895833,28.7317,-95.2428,0109,-8.34,-8.63,12.0000,224.0000
1981-10-22 10:00:00 UTC,2444899.916667,28.7317,-95.2428,0109,-8.03,-8.92,12.0000,222.0000
1981-10-22 10:30:00 UTC,2444899.937500,28.7317,-95.2428,0109,-6.88,-9.83,12.0000,215.0000
1981-10-22 11:00:00 UTC,2444899.958333,28.7317,-95.2428,0109,-6.10,-11.48,13.0000,208.0000
1981-10-22 11:30:00 UTC,2444899.979167,28.7317,-95.2428,0109,-5.08,-11.97,13.0000,203.0000
1981-10-22 12:00:00 UTC,2444900.000000,28.7317,-95.2428,0109,-4.30,-11.20,12.0000,201.0000
1981-10-22 12:30:00 UTC,2444900.020833,28.7317,-95.2428,0109,-4.30,-11.20,12.0000,201.0000
1981-10-22 13:00:00 UTC,2444900.041667,28.7317,-95.2428,0109,-3.76,-10.34,11.0000,200.0000
1981-10-22 13:30:00 UTC,2444900.062500,28.7317,-95.2428,0109,-3.75,-9.27,10.0000,202.0000
1981-10-22 14:00:00 UTC,2444900.083333,28.7317,-95.2428,0109,-4.64,-7.71,9.0000,211.0000
1981-10-22 14:30:00 UTC,2444900.104167,28.7317,-95.2428,0109,-5.35,-5.95,8.0000,222.0000
1981-10-22 15:00:00 UTC,2444900.125000,28.7317,-95.2428,0109,-6.99,-5.66,9.0000,231.0000
1981-10-22 15:30:00 UTC,2444900.145833,28.7317,-95.2428,0109,-8.90,-6.47,11.0000,234.0000
1981-10-22 16:00:00 UTC,2444900.166667,28.7317,-95.2428,0109,-7.55,-6.56,10.0000,229.0000
1981-10-22 16:30:00 UTC,2444900.187500,28.7317,-95.2428,0109,-6.56,-7.55,10.0000,221.0000
1981-10-22 17:00:00 UTC,2444900.208333,28.7317,-95.2428,0109,-7.19,-6.95,10.0000,226.0000
1981-10-22 17:30:00 UTC,2444900.229167,28.7317,-95.2428,0109,-9.01,-6.31,11.0000,235.0000
1981-10-22 18:00:00 UTC,2444900.250000,28.7317,-95.2428,0109,-10.50,-5.82,12.0000,241.0000
1981-10-22 18:30:00 UTC,2444900.270833,28.7317,-95.2428,0109,-10.96,-4.88,12.0000,246.0000
1981-10-22 19:00:00 UTC,2444900.291667,28.7317,-95.2428,0109,-11.97,-5.08,13.0000,247.0000
1981-10-22 19:30:00 UTC,2444900.312500,28.7317,-95.2428,0109,-11.97,-5.08,13.0000,247.0000
1981-10-22 20:00:00 UTC,2444900.333333,28.7317,-95.2428,0109,-11.88,-5.29,13.0000,246.0000
1981-10-22 20:30:00 UTC,2444900.354167,28.7317,-95.2428,0109,-13.59,-6.34,15.0000,245.0000
1981-10-22 21:00:00 UTC,2444900.375000,28.7317,-95.2428,0109,-14.13,-7.51,16.0000,242.0000
1981-10-22 21:30:00 UTC,2444900.395833,28.7317,-95.2428,0109,-14.72,-8.50,17.0000,240.0000
1981-10-22 22:00:00 UTC,2444900.416667,28.7317,-95.2428,0109,-14.72,-8.50,17.0000,240.0000
1981-10-22 22:30:00 UTC,2444900.437500,28.7317,-95.2428,0109,-16.62,-9.21,19.0000,241.0000
1981-10-22 23:00:00 UTC,2444900.458333,28.7317,-95.2428,0109,-17.98,-8.77,20.0000,244.0000
1981-10-22 23:30:00 UTC,2444900.479167,28.7317,-95.2428,0109,-18.79,-6.84,20.0000,250.0000
1981-10-23 00:00:00 UTC,2444900.500000,28.7317,-95.2428,0109,-18.17,-5.56,19.0000,253.0000
1981-10-23 00:30:00 UTC,2444900.520833,28.7317,-95.2428,0109,-15.97,-5.81,17.0000,250.0000
1981-10-23 01:00:00 UTC,2444900.541667,28.7317,-95.2428,0109,-14.50,-6.76,16.0000,245.0000
1981-10-23 01:30:00 UTC,2444900.562500,28.7317,-95.2428,0109,-15.76,-6.37,17.0000,248.0000
1981-10-23 02:00:00 UTC,2444900.583333,28.7317,-95.2428,0109,-17.61,-3.74,18.0000,258.0000
1981-10-23 02:30:00 UTC,2444900.604167,28.7317,-95.2428,0109,-16.98,-0.89,17.0000,267.0000
1981-10-23 03:00:00 UTC,2444900.625000,28.7317,-95.2428,0109,-16.00,-0.00,16.0000,270.0000
1981-10-23 03:30:00 UTC,2444900.645833,28.7317,-95.2428,0109,-12.99,-0.45,13.0000,268.0000
1981-10-23 04:00:00 UTC,2444900.666667,28.7317,-95.2428,0109,-10.92,-1.34,11.0000,263.0000
1981-10-23 04:30:00 UTC,2444900.687500,28.7317,-95.2428,0109,-9.90,-1.39,10.0000,262.0000
1981-10-23 05:00:00 UTC,2444900.708333,28.7317,-95.2428,0109,-10.94,-1.15,11.0000,264.0000
1981-10-23 05:30:00 UTC,2444900.729167,28.7317,-95.2428,0109,-14.89,-1.83,15.0000,263.0000
1981-10-23 06:00:00 UTC,2444900.750000,28.7317,-95.2428,0109,-21.84,-2.68,22.0000,263.0000
1981-10-23 06:30:00 UTC,2444900.770833,28.7317,-95.2428,0109,-27.73,-3.90,28.0000,262.0000
1981-10-23 07:00:00 UTC,2444900.791667,28.7317,-95.2428,0109,-30.21,-6.97,31.0000,257.0000
1981-10-23 07:30:00 UTC,2444900.812500,28.7317,-95.2428,0109,-32.34,-10.51,34.0000,252.0000
1981-10-23 08:00:00 UTC,2444900.833333,28.7317,-95.2428,0109,-33.14,-14.07,36.0000,247.0000
1981-10-23 08:30:00 UTC,2444900.854167,28.7317,-95.2428,0109,-33.26,-16.22,37.0000,244.0000
1981-10-23 09:00:00 UTC,2444900.875000,28.7317,-95.2428,0109,-32.97,-16.80,37.0000,243.0000
1981-10-23 09:30:00 UTC,2444900.895833,28.7317,-95.2428,0109,-32.36,-17.94,37.0000,241.0000
1981-10-23 10:00:00 UTC,2444900.916667,28.7317,-95.2428,0109,-33.43,-20.09,39.0000,239.0000
1981-10-23 10:30:00 UTC,2444900.937500,28.7317,-95.2428,0109,-35.14,-21.12,41.0000,239.0000
1981-10-23 11:00:00 UTC,2444900.958333,28.7317,-95.2428,0109,-35.62,-22.26,42.0000,238.0000
1981-10-23 11:30:00 UTC,2444900.979167,28.7317,-95.2428,0109,-36.06,-23.42,43.0000,237.0000
1981-10-23 12:00:00 UTC,2444901.000000,28.7317,-95.2428,0109,-36.90,-23.96,44.0000,237.0000
1981-10-23 12:30:00 UTC,2444901.020833,28.7317,-95.2428,0109,-35.65,-24.05,43.0000,236.0000
1981-10-23 13:00:00 UTC,2444901.041667,28.7317,-95.2428,0109,-36.06,-23.42,43.0000,237.0000
1981-10-23 13:30:00 UTC,2444901.062500,28.7317,-95.2428,0109,-36.47,-22.79,43.0000,238.0000
1981-10-23 14:00:00 UTC,2444901.083333,28.7317,-95.2428,0109,-36.90,-23.96,44.0000,237.0000
1981-10-23 14:30:00 UTC,2444901.104167,28.7317,-95.2428,0109,-36.86,-25.81,45.0000,235.0000
1981-10-23 15:00:00 UTC,2444901.125000,28.7317,-95.2428,0109,-37.21,-27.04,46.0000,234.0000
1981-10-23 15:30:00 UTC,2444901.145833,28.7317,-95.2428,0109,-38.33,-28.89,48.0000,233.0000
1981-10-23 16:00:00 UTC,2444901.166667,28.7317,-95.2428,0109,-39.93,-30.09,50.0000,233.0000
1981-10-23 16:30:00 UTC,2444901.187500,28.7317,-95.2428,0109,-38.86,-31.47,50.0000,231.0000
1981-10-23 17:00:00 UTC,2444901.208333,28.7317,-95.2428,0109,-36.00,-30.21,47.0000,230.0000
1981-10-23 17:30:00 UTC,2444901.229167,28.7317,-95.2428,0109,-35.46,-27.70,45.0000,232.0000
1981-10-23 18:00:00 UTC,2444901.250000,28.7317,-95.2428,0109,-36.41,-26.45,45.0000,234.0000
1981-10-23 18:30:00 UTC,2444901.270833,28.7317,-95.2428,0109,-35.60,-25.86,44.0000,234.0000
1981-10-23 19:00:00 UTC,2444901.291667,28.7317,-95.2428,0109,-36.86,-25.81,45.0000,235.0000
1981-10-23 19:30:00 UTC,2444901.312500,28.7317,-95.2428,0109,-41.78,-29.25,51.0000,235.0000
1981-10-23 20:00:00 UTC,2444901.333333,28.7317,-95.2428,0109,-44.23,-30.97,54.0000,235.0000
1981-10-23 20:30:00 UTC,2444901.354167,28.7317,-95.2428,0109,-45.05,-31.55,55.0000,235.0000
1981-10-23 21:00:00 UTC,2444901.375000,28.7317,-95.2428,0109,-45.05,-31.55,55.0000,235.0000
1981-10-23 21:30:00 UTC,2444901.395833,28.7317,-95.2428,0109,-44.23,-30.97,54.0000,235.0000
1981-10-23 22:00:00 UTC,2444901.416667,28.7317,-95.2428,0109,-45.29,-29.41,54.0000,237.0000
1981-10-23 22:30:00 UTC,2444901.437500,28.7317,-95.2428,0109,-46.29,-27.81,54.0000,239.0000
1981-10-23 23:00:00 UTC,2444901.458333,28.7317,-95.2428,0109,-47.63,-27.50,55.0000,240.0000
1981-10-23 23:30:00 UTC,2444901.479167,28.7317,-95.2428,0109,-48.50,-28.00,56.0000,240.0000
1981-10-24 00:00:00 UTC,2444901.500000,28.7317,-95.2428,0109,-44.57,-26.78,52.0000,239.0000
1981-10-24 00:30:00 UTC,2444901.520833,28.7317,-95.2428,0109,-40.71,-25.44,48.0000,238.0000
1981-10-24 01:00:00 UTC,2444901.541667,28.7317,-95.2428,0109,-41.93,-27.23,50.0000,237.0000
1981-10-24 01:30:00 UTC,2444901.562500,28.7317,-95.2428,0109,-43.69,-31.74,54.0000,234.0000
1981-10-24 02:00:00 UTC,2444901.583333,28.7317,-95.2428,0109,-44.13,-34.48,56.0000,232.0000
1981-10-24 02:30:00 UTC,2444901.604167,28.7317,-95.2428,0109,-42.88,-31.15,53.0000,234.0000
1981-10-24 03:00:00 UTC,2444901.625000,28.7317,-95.2428,0109,-42.00,-25.24,49.0000,239.0000
1981-10-24 03:30:00 UTC,2444901.645833,28.7317,-95.2428,0109,-42.00,-25.24,49.0000,239.0000
1981-10-24 04:00:00 UTC,2444901.666667,28.7317,-95.2428,0109,-41.55,-25.97,49.0000,238.0000
1981-10-24 04:30:00 UTC,2444901.687500,28.7317,-95.2428,0109,-40.23,-22.30,46.0000,241.0000
1981-10-24 05:00:00 UTC,2444901.708333,28.7317,-95.2428,0109,-37.97,-20.19,43.0000,242.0000
1981-10-24 05:30:00 UTC,2444901.729167,28.7317,-95.2428,0109,-38.11,-22.00,44.0000,240.0000
1981-10-24 06:00:00 UTC,2444901.750000,28.7317,-95.2428,0109,-39.86,-24.91,47.0000,238.0000
1981-10-24 06:30:00 UTC,2444901.770833,28.7317,-95.2428,0109,-41.14,-24.72,48.0000,239.0000
1981-10-24 07:00:00 UTC,2444901.791667,28.7317,-95.2428,0109,-41.14,-24.72,48.0000,239.0000
1981-10-24 07:30:00 UTC,2444901.812500,28.7317,-95.2428,0109,-39.01,-24.38,46.0000,238.0000
1981-10-24 08:00:00 UTC,2444901.833333,28.7317,-95.2428,0109,-37.74,-24.51,45.0000,237.0000
1981-10-24 08:30:00 UTC,2444901.854167,28.7317,-95.2428,0109,-37.74,-24.51,45.0000,237.0000
1981-10-24 09:00:00 UTC,2444901.875000,28.7317,-95.2428,0109,-39.42,-25.60,47.0000,237.0000
1981-10-24 09:30:00 UTC,2444901.895833,28.7317,-95.2428,0109,-41.09,-26.69,49.0000,237.0000
1981-10-24 10:00:00 UTC,2444901.916667,28.7317,-95.2428,0109,-42.28,-28.52,51.0000,236.0000
1981-10-24 10:30:00 UTC,2444901.937500,28.7317,-95.2428,0109,-43.41,-30.40,53.0000,235.0000
1981-10-24 11:00:00 UTC,2444901.958333,28.7317,-95.2428,0109,-44.45,-28.87,53.0000,237.0000
1981-10-24 11:30:00 UTC,2444901.979167,28.7317,-95.2428,0109,-43.61,-28.32,52.0000,237.0000
1981-10-24 12:00:00 UTC,2444902.000000,28.7317,-95.2428,0109,-41.45,-27.96,50.0000,236.0000
1981-10-24 12:30:00 UTC,2444902.020833,28.7317,-95.2428,0109,-40.96,-28.68,50.0000,235.0000
1981-10-24 13:00:00 UTC,2444902.041667,28.7317,-95.2428,0109,-43.11,-29.08,52.0000,236.0000
1981-10-24 13:30:00 UTC,2444902.062500,28.7317,-95.2428,0109,-45.79,-28.62,54.0000,238.0000
1981-10-24 14:00:00 UTC,2444902.083333,28.7317,-95.2428,0109,-46.29,-27.81,54.0000,239.0000
1981-10-24 14:30:00 UTC,2444902.104167,28.7317,-95.2428,0109,-43.72,-26.27,51.0000,239.0000
1981-10-24 15:00:00 UTC,2444902.125000,28.7317,-95.2428,0109,-40.71,-25.44,48.0000,238.0000
1981-10-24 15:30:00 UTC,2444902.145833,28.7317,-95.2428,0109,-39.01,-24.38,46.0000,238.0000
1981-10-24 16:00:00 UTC,2444902.166667,28.7317,-95.2428,0109,-36.47,-22.79,43.0000,238.0000
1981-10-24 16:30:00 UTC,2444902.187500,28.7317,-95.2428,0109,-35.14,-21.12,41.0000,239.0000
1981-10-24 17:00:00 UTC,2444902.208333,28.7317,-95.2428,0109,-36.00,-21.63,42.0000,239.0000
1981-10-24 17:30:00 UTC,2444902.229167,28.7317,-95.2428,0109,-35.14,-21.12,41.0000,239.0000
1981-10-24 18:00:00 UTC,2444902.250000,28.7317,-95.2428,0109,-30.67,-20.69,37.0000,236.0000
1981-10-24 18:30:00 UTC,2444902.270833,28.7317,-95.2428,0109,-26.79,-20.93,34.0000,232.0000
1981-10-24 19:00:00 UTC,2444902.291667,28.7317,-95.2428,0109,-26.05,-21.85,34.0000,230.0000
1981-10-24 19:30:00 UTC,2444902.312500,28.7317,-95.2428,0109,-26.42,-21.40,34.0000,231.0000
1981-10-24 20:00:00 UTC,2444902.333333,28.7317,-95.2428,0109,-28.67,-20.08,35.0000,235.0000
1981-10-24 20:30:00 UTC,2444902.354167,28.7317,-95.2428,0109,-29.02,-19.57,35.0000,236.0000
1981-10-24 21:00:00 UTC,2444902.375000,28.7317,-95.2428,0109,-28.67,-20.08,35.0000,235.0000
1981-10-24 21:30:00 UTC,2444902.395833,28.7317,-95.2428,0109,-28.51,-18.52,34.0000,237.0000
1981-10-24 22:00:00 UTC,2444902.416667,28.7317,-95.2428,0109,-28.51,-18.52,34.0000,237.0000
1981-10-24 22:30:00 UTC,2444902.437500,28.7317,-95.2428,0109,-27.51,-19.98,34.0000,234.0000
1981-10-24 23:00:00 UTC,2444902.458333,28.7317,-95.2428,0109,-26.70,-19.40,33.0000,234.0000
1981-10-24 23:30:00 UTC,2444902.479167,28.7317,-95.2428,0109,-26.53,-17.89,32.0000,236.0000
1981-10-25 00:00:00 UTC,2444902.500000,28.7317,-95.2428,0109,-26.24,-14.54,30.0000,241.0000
1981-10-25 00:30:00 UTC,2444902.520833,28.7317,-95.2428,0109,-25.58,-11.39,28.0000,246.0000
1981-10-25 01:00:00 UTC,2444902.541667,28.7317,-95.2428,0109,-23.93,-10.16,26.0000,247.0000
1981-10-25 01:30:00 UTC,2444902.562500,28.7317,-95.2428,0109,-23.93,-10.16,26.0000,247.0000
1981-10-25 02:00:00 UTC,2444902.583333,28.7317,-95.2428,0109,-24.43,-8.89,26.0000,250.0000
1981-10-25 02:30:00 UTC,2444902.604167,28.7317,-95.2428,0109,-24.15,-6.47,25.0000,255.0000
1981-10-25 03:00:00 UTC,2444902.625000,28.7317,-95.2428,0109,-24.36,-5.62,25.0000,257.0000
1981-10-25 03:30:00 UTC,2444902.645833,28.7317,-95.2428,0109,-24.26,-6.05,25.0000,256.0000
1981-10-25 04:00:00 UTC,2444902.666667,28.7317,-95.2428,0109,-23.18,-6.21,24.0000,255.0000
1981-10-25 04:30:00 UTC,2444902.687500,28.7317,-95.2428,0109,-20.19,-5.79,21.0000,254.0000
1981-10-25 05:00:00 UTC,2444902.708333,28.7317,-95.2428,0109,-19.23,-5.51,20.0000,254.0000
1981-10-25 05:30:00 UTC,2444902.729167,28.7317,-95.2428,0109,-18.35,-4.92,19.0000,255.0000
1981-10-25 06:00:00 UTC,2444902.750000,28.7317,-95.2428,0109,-18.51,-4.27,19.0000,257.0000
1981-10-25 06:30:00 UTC,2444902.770833,28.7317,-95.2428,0109,-17.39,-4.66,18.0000,255.0000
1981-10-25 07:00:00 UTC,2444902.791667,28.7317,-95.2428,0109,-16.34,-4.69,17.0000,254.0000
1981-10-25 07:30:00 UTC,2444902.812500,28.7317,-95.2428,0109,-16.26,-4.97,17.0000,253.0000
1981-10-25 08:00:00 UTC,2444902.833333,28.7317,-95.2428,0109,-17.62,-7.12,19.0000,248.0000
1981-10-25 08:30:00 UTC,2444902.854167,28.7317,-95.2428,0109,-19.24,-10.67,22.0000,241.0000
1981-10-25 09:00:00 UTC,2444902.875000,28.7317,-95.2428,0109,-20.73,-13.98,25.0000,236.0000
1981-10-25 09:30:00 UTC,2444902.895833,28.7317,-95.2428,0109,-21.45,-18.00,28.0000,230.0000
1981-10-25 10:00:00 UTC,2444902.916667,28.7317,-95.2428,0109,-23.33,-23.33,33.0000,225.0000
1981-10-25 10:30:00 UTC,2444902.937500,28.7317,-95.2428,0109,-27.17,-23.62,36.0000,229.0000
1981-10-25 11:00:00 UTC,2444902.958333,28.7317,-95.2428,0109,-29.35,-19.06,35.0000,237.0000
1981-10-25 11:30:00 UTC,2444902.979167,28.7317,-95.2428,0109,-29.14,-15.49,33.0000,242.0000
1981-10-25 12:00:00 UTC,2444903.000000,28.7317,-95.2428,0109,-29.91,-13.95,33.0000,245.0000
1981-10-25 12:30:00 UTC,2444903.020833,28.7317,-95.2428,0109,-31.30,-13.28,34.0000,247.0000
1981-10-25 13:00:00 UTC,2444903.041667,28.7317,-95.2428,0109,-32.89,-11.97,35.0000,250.0000
1981-10-25 13:30:00 UTC,2444903.062500,28.7317,-95.2428,0109,-32.68,-9.37,34.0000,254.0000
1981-10-25 14:00:00 UTC,2444903.083333,28.7317,-95.2428,0109,-32.28,-6.86,33.0000,258.0000
1981-10-25 14:30:00 UTC,2444903.104167,28.7317,-95.2428,0109,-29.54,-5.21,30.0000,260.0000
1981-10-25 15:00:00 UTC,2444903.125000,28.7317,-95.2428,0109,-26.74,-3.76,27.0000,262.0000
1981-10-25 15:30:00 UTC,2444903.145833,28.7317,-95.2428,0109,-26.96,-1.41,27.0000,267.0000
1981-10-25 16:00:00 UTC,2444903.166667,28.7317,-95.2428,0109,-28.00,-0.00,28.0000,270.0000
1981-10-25 16:30:00 UTC,2444903.187500,28.7317,-95.2428,0109,-28.98,1.01,29.0000,272.0000
1981-10-25 17:00:00 UTC,2444903.208333,28.7317,-95.2428,0109,-27.93,1.95,28.0000,274.0000
1981-10-25 17:30:00 UTC,2444903.229167,28.7317,-95.2428,0109,-24.76,3.48,25.0000,278.0000
1981-10-25 18:00:00 UTC,2444903.250000,28.7317,-95.2428,0109,-22.65,3.99,23.0000,280.0000
1981-10-25 18:30:00 UTC,2444903.270833,28.7317,-95.2428,0109,-23.64,4.17,24.0000,280.0000
1981-10-25 19:00:00 UTC,2444903.291667,28.7317,-95.2428,0109,-24.69,3.91,25.0000,279.0000
1981-10-25 19:30:00 UTC,2444903.312500,28.7317,-95.2428,0109,-25.90,2.27,26.0000,275.0000
1981-10-25 20:00:00 UTC,2444903.333333,28.7317,-95.2428,0109,-26.00,-0.45,26.0000,269.0000
1981-10-25 20:30:00 UTC,2444903.354167,28.7317,-95.2428,0109,-26.93,-1.88,27.0000,266.0000
1981-10-25 21:00:00 UTC,2444903.375000,28.7317,-95.2428,0109,-27.93,-1.95,28.0000,266.0000
1981-10-25 21:30:00 UTC,2444903.395833,28.7317,-95.2428,0109,-26.90,-2.35,27.0000,265.0000
1981-10-25 22:00:00 UTC,2444903.416667,28.7317,-95.2428,0109,-26.80,-3.29,27.0000,263.0000
1981-10-25 22:30:00 UTC,2444903.437500,28.7317,-95.2428,0109,-26.80,-3.29,27.0000,263.0000
1981-10-25 23:00:00 UTC,2444903.458333,28.7317,-95.2428,0109,-24.94,-1.74,25.0000,266.0000
1981-10-25 23:30:00 UTC,2444903.479167,28.7317,-95.2428,0109,-21.99,0.77,22.0000,272.0000
1981-10-26 00:00:00 UTC,2444903.500000,28.7317,-95.2428,0109,-18.77,2.97,19.0000,279.0000
1981-10-26 00:30:00 UTC,2444903.520833,28.7317,-95.2428,0109,-16.34,4.69,17.0000,286.0000
1981-10-26 01:00:00 UTC,2444903.541667,28.7317,-95.2428,0109,-12.36,6.57,14.0000,298.0000
1981-10-26 01:30:00 UTC,2444903.562500,28.7317,-95.2428,0109,-8.63,8.34,12.0000,314.0000
1981-10-26 02:00:00 UTC,2444903.583333,28.7317,-95.2428,0109,-7.46,10.65,13.0000,325.0000
1981-10-26 02:30:00 UTC,2444903.604167,28.7317,-95.2428,0109,-7.21,12.00,14.0000,329.0000
1981-10-26 03:00:00 UTC,2444903.625000,28.7317,-95.2428,0109,-6.81,13.37,15.0000,333.0000
1981-10-26 03:30:00 UTC,2444903.645833,28.7317,-95.2428,0109,-6.25,14.73,16.0000,337.0000
1981-10-26 04:00:00 UTC,2444903.666667,28.7317,-95.2428,0109,-5.26,17.21,18.0000,343.0000
1981-10-26 04:30:00 UTC,2444903.687500,28.7317,-95.2428,0109,-4.37,20.54,21.0000,348.0000
1981-10-26 05:00:00 UTC,2444903.708333,28.7317,-95.2428,0109,-5.40,23.38,24.0000,347.0000
1981-10-26 05:30:00 UTC,2444903.729167,28.7317,-95.2428,0109,-7.81,22.69,24.0000,341.0000
1981-10-26 06:00:00 UTC,2444903.750000,28.7317,-95.2428,0109,-9.99,19.60,22.0000,333.0000
1981-10-26 06:30:00 UTC,2444903.770833,28.7317,-95.2428,0109,-10.47,13.40,17.0000,322.0000
1981-10-26 07:00:00 UTC,2444903.791667,28.7317,-95.2428,0109,-9.51,8.87,13.0000,313.0000
1981-10-26 07:30:00 UTC,2444903.812500,28.7317,-95.2428,0109,-7.08,10.90,13.0000,327.0000
1981-10-26 08:00:00 UTC,2444903.833333,28.7317,-95.2428,0109,-4.23,12.29,13.0000,341.0000
1981-10-26 08:30:00 UTC,2444903.854167,28.7317,-95.2428,0109,-3.58,12.50,13.0000,344.0000